loading
|

STARLINK-11080, 60727

Orbit data source: Space-Track

STARLINK-11080, 60727 is a payload satellite owned by SpaceX/Seattle (US) in LEO that was launched on Wed, 28 Aug 2024 UTC via an FALCON 9 launch vehicle from the Air Force Eastern Test Range (AFETR). Payloads include a variety of satellites, spacecraft, and rockets equipped with specific instruments for various scientific and technological missions. These include communications satellites like Starlink; space stations such as the ISS; scientific satellites like the Hubble; Earth observation satellites from companies like Planet Labs, Umbra, and HawkEye 360; GPS; miniature CubeSats for education and research; and military/defense satellites.

Loading next visibility...
Next conjunction unknown
Loading greatness...
STARLINK-11080 details
Identifier
60727, 2024-152H
Orbit
LEO
Last TLE update17 hours ago
Origin
Flag of USSpaceX/Seattle (US)
ManufacturerSpaceX/Seattle
MissionOperational spacecraft
Bus & MotorSTARLINK V2M, Unknown motor
Mass750 kg wet, ~700 kg dry
Launch date (UTC)
2024-08-28 (2 months ago)
Launch vehicle
FALCON 9
Launch site
Air Force Eastern Test Range (AFETR)
Object type
Payload
Rocket body
Debris
Shape & HBRUnknown
Radar Cross SectionLarge (>1 m²)

Expand to show TLE details & history

TLE from 17 hours ago
0 STARLINK-11080
1 60727U 24152H   24287.89960677  .00009617  00000-0  84240-4 0  9996
2 60727  53.1600 119.1229 0002010 139.6465 220.4702 15.69684041  8583
Epoch: 2024-10-13T21:35Z
Definitive object data (Epoch: 2024-10-13T21:35:26.024Z)
Latitude-0.00007°
Longitude132.32994°
Altitude361.746 km
Speed7.693 km/s
True Right ascension07h 56m 29s
True Declination0° 00' 00"
Sunlit
Object was in daylight at TLE epoch
Predictive object data (real-time)
Latitude-9.6671°
Longitude121.59644°
Altitude363.647 km
Speed7.691 km/s
Apparent Right ascension04h 20m 04s
Apparent Declination-59° 33' 44"
Sunlit
Object is in daylight
Predictive observer data (real-time)
Local Sidereal Time08:54:54
Azimuth211.204° SW
Elevation-24.341°
Doppler factor1
Orbital elements
Apogee361.416 km
Perigee358.707 km
Semi-major axis6,738.199 km
Eccentricity0.000201
Inclination53.16°
RAAN119.1229°
Arg. of periapsis139.6465°
True anomaly220.45525°
Mean anomaly220.4702°
Eccentric anomaly220.46273°
Mean motion3.92399 °/min
BSTAR0.00008424
Period91.74 mins
No data available

STARLINK-11080 Visibility forecast

Observer location: 39.9160978°, -105.1181434

Span
Click to sort rows by Start time (UTC) header in descending order
Start Az.
Max El. time (UTC)
Max El. Az.
Max El.
End time (UTC)
End Az.
4 mins2024-10-14 16:08:53.893Z265.955° W2024-10-14 16:09:53.893Z300.191° NW32.514°2024-10-14 16:12:53.893Z36.809° NE